Location: Galahad
(52.5136°N, 111.9273°W)
Time: 05:25:09
(UTC+00:00)

Envisat - Visible Passes

Search period start: 28 November 2021 00:00
Search period end: 08 December 2021 00:00
Orbit: 764 x 766 km, 98.2° (Epoch: 27 November)

Date Brightness Start Highest point End Pass type
(mag) Time Alt. Az. Time Alt. Az. Time Alt. Az.
28 Nov 5.4 00:34:27 10° SSW 00:38:40 26° W 00:42:55 10° NW visible
28 Nov 6.0 10:59:02 10° ENE 11:01:10 12° E 11:03:16 10° ESE visible
28 Nov 3.2 12:36:00 10° NNE 12:41:06 74° ESE 12:46:11 10° S visible
28 Nov 4.1 14:15:47 10° N 14:19:39 22° WNW 14:23:30 10° WSW visible
28 Nov 4.1 23:56:36 10° S 00:01:32 49° W 00:06:30 10° NNW visible
29 Nov 4.4 11:59:19 10° NNE 12:04:04 38° E 12:08:47 10° SSE visible
29 Nov 3.4 13:38:25 10° N 13:43:08 39° WNW 13:47:48 10° SW visible
30 Nov 5.9 01:01:07 10° SW 01:04:17 17° W 01:07:31 10° NW visible
30 Nov 5.4 11:23:08 10° NE 11:26:51 20° E 11:30:33 10° SE visible
30 Nov 2.9 13:01:19 10° NNE 13:06:24 72° WNW 13:11:28 10° SSW visible
01 Dec 5.0 00:22:31 10° SSW 00:27:01 31° W 00:31:33 10° NNW visible
01 Dec 3.5 12:24:28 10° NNE 12:29:31 60° E 12:34:32 10° S visible
01 Dec 3.9 14:04:03 10° N 14:08:13 26° WNW 14:12:22 10° WSW visible
02 Dec 4.7 11:47:54 10° NNE 11:52:26 31° E 11:56:55 10° SSE visible
02 Dec 3.2 13:26:46 10° N 13:31:38 46° WNW 13:36:28 10° SW visible
03 Dec 5.8 00:48:53 10° SW 00:52:36 20° W 00:56:20 10° NW visible
03 Dec 5.7 11:11:58 10° NE 11:15:09 16° E 11:18:18 10° SE visible
03 Dec 2.9 12:49:45 10° NNE 12:54:52 87° WNW 12:59:58 10° SSW visible
03 Dec 4.3 14:29:51 10° NNW 14:33:14 18° NW 14:36:35 10° W visible
04 Dec 4.7 00:10:39 10° SSW 00:15:22 38° W 00:20:07 10° NNW visible
04 Dec 3.9 12:12:58 10° NNE 12:17:55 49° E 12:22:50 10° S visible
04 Dec 3.7 13:52:20 10° N 13:56:46 31° WNW 14:01:10 10° WSW visible
05 Dec 6.1 01:16:06 10° WSW 01:18:17 13° W 01:20:27 10° WNW visible
05 Dec 5.0 11:36:32 10° NE 11:40:46 26° E 11:44:58 10° SSE visible
05 Dec 3.0 13:15:08 10° N 13:20:08 56° WNW 13:25:05 10° SW visible
06 Dec 5.5 00:36:48 10° SW 00:40:54 24° W 00:45:03 10° NW visible
06 Dec 5.9 11:00:59 10° NE 11:03:25 13° E 11:05:50 10° ESE visible
06 Dec 3.1 12:38:11 10° NNE 12:43:18 78° ESE 12:48:24 10° S visible
06 Dec 4.2 14:18:03 10° N 14:21:48 21° NW 14:25:33 10° WSW visible
06 Dec 4.2 23:58:52 10° S 00:03:44 47° W 00:08:40 10° NNW visible
07 Dec 4.2 12:01:29 10° NNE 12:06:18 40° E 12:11:04 10° SSE visible
07 Dec 3.5 13:40:39 10° N 13:45:17 37° WNW 13:49:55 10° SW visible
